Back to catalog

STARLINK-11540

AliveCommunicationsVLEO
NORAD 62564·PAYLOAD·🇺🇸 United States

Launched Jan 10, 2025 from Cape Canaveral Space Force Station

Loading…

Next Passes (next 24 hours)

TLE

FreshSource: CelesTrak SupGP

Epoch: Sep 15, 2026, 03:31 UTC

1 62564C 25006L   26258.14701389 -.00041793  00000+0 -32434-3 0  2584
2 62564  43.0006  78.0637 0001712 271.4043 222.5862 15.70878120    18

Track STARLINK-11540 in real time with AllMySat

Download on the App Store